Find Starlink 1962

NORAD ID: 47563 Int'l Des: 2021-009 Owner: SPXS Country: US Constellation: starlink operational
LEOCIRCULAR

現在のビュー

3D地球を読み込み中...

About Starlink 1962

Starlink 1962 (NORAD 47563) is a starlink constellation satellite (v1.0) launched Feb 4, 2021 by SPXS of US. It operates in LEO, CIRCULAR orbit with a mass of 260.00 kg.

Starlink 1962について

説明を読み込み中...

次回通過

Passes for default location (London). Set your location on the main map for personalized predictions.

高度履歴

Loading altitude history...

軌道要素

1 47563U 21009R 26163.83335647 .00319366 49330-4 97912-3 0 9996
2 47563 53.0399 243.8410 0003077 7.8775 316.0071 15.91399770 5935
Epoch: Jun 12, 2026 • Age: 14 hours

現在のステータス

高度 296.1 km
速度 7.73 km/s
衛星直下点 0.84°N, 165.97°W
打ち上げ日 Feb 4, 2021
運用期間 5.3 years
タイプ internet

技術仕様

分類 Payload
質量 260.00 kg
乾燥質量 248.00 kg
総質量 260.00 kg
長さ 0.20 m
直径 2.80 m
スパン 9.00 m
形状 Box + pan
製造者 SPXS
バスタイプ Starlink
フェーズステータス In Orbit
所有者/国 SPXS/US

Most Searched